Location: New Mesquite
(33.1168°N, 96.4336°W)
Time: 09:55:29
(UTC+00:00)

Meteor 1-27 Rocket - Pass Details

Date: 07 July 2022
Orbit: 829 x 911 km, 81.3° (Epoch: 14 August)

Event Time Altitude Azimuth Distance (km) Brightness Sun altitude
Rises 07:11:16 0° 15° (NNE) 3,405 7.9 -33.5°
Reaches altitude 10° 07:15:14 10° 43° (NE) 2,451 6.7 -33.3°
Maximum altitude 07:17:39 13° 70° (ENE) 2,241 6.2 -33.2°
Enters shadow 07:19:42 11° 92° (E) 2,380 6.1 -33.1°
